TimeEDT,TemperatureF,Dew PointF,Humidity,Sea Level PressureIn,VisibilityMPH,Wind Direction,Wind SpeedMPH,Gust SpeedMPH,PrecipitationIn,Events,Conditions,WindDirDegrees,DateUTC
12:53 AM,52.0,45.0,77,29.94,10.0,ENE,5.8,-,0.01,,Overcast,60,2013-05-05 04:53:00
1:53 AM,53.1,45.0,74,29.92,10.0,ENE,6.9,-,0.00,,Overcast,60,2013-05-05 05:53:00
2:53 AM,52.0,46.0,80,29.88,10.0,ENE,4.6,-,0.00,Rain,Light Rain,70,2013-05-05 06:53:00
3:53 AM,53.1,46.0,77,29.86,10.0,NE,5.8,-,0.01,,Overcast,50,2013-05-05 07:53:00
4:53 AM,53.1,45.0,74,29.85,10.0,ENE,8.1,-,0.00,Rain,Light Rain,70,2013-05-05 08:53:00
5:53 AM,51.1,46.0,83,29.87,10.0,ENE,6.9,-,0.02,Rain,Light Rain,60,2013-05-05 09:53:00
6:53 AM,50.0,46.0,86,29.84,10.0,ENE,6.9,-,0.02,,Overcast,70,2013-05-05 10:53:00
7:53 AM,52.0,43.0,71,29.85,10.0,ENE,10.4,20.7,N/A,,Mostly Cloudy,60,2013-05-05 11:53:00
8:53 AM,52.0,43.0,71,29.86,10.0,ENE,8.1,-,0.00,,Overcast,60,2013-05-05 12:53:00
9:53 AM,52.0,43.0,71,29.85,10.0,Variable,5.8,-,0.00,Rain,Light Rain,0,2013-05-05 13:53:00
10:53 AM,55.9,46.0,69,29.86,10.0,Variable,3.5,-,0.00,,Mostly Cloudy,0,2013-05-05 14:53:00
11:53 AM,55.0,45.0,69,29.86,10.0,Variable,4.6,-,N/A,,Overcast,0,2013-05-05 15:53:00
12:53 PM,57.0,48.0,72,29.84,10.0,East,12.7,23.0,0.00,Rain,Light Rain,100,2013-05-05 16:53:00
1:53 PM,57.0,48.0,72,29.83,10.0,East,12.7,23.0,0.00,,Overcast,80,2013-05-05 17:53:00
2:53 PM,57.9,46.9,67,29.83,10.0,East,18.4,29.9,0.00,,Overcast,90,2013-05-05 18:53:00
3:53 PM,57.9,46.9,67,29.82,10.0,ESE,10.4,25.3,N/A,,Overcast,120,2013-05-05 19:53:00
4:53 PM,57.9,46.9,67,29.83,10.0,ESE,16.1,26.5,0.00,Rain,Light Rain,120,2013-05-05 20:53:00
5:53 PM,57.0,52.0,83,29.83,10.0,East,5.8,-,0.01,Rain,Light Rain,80,2013-05-05 21:53:00
6:53 PM,55.0,50.0,83,29.82,10.0,East,4.6,-,0.01,Rain,Light Rain,80,2013-05-05 22:53:00
7:53 PM,55.0,50.0,83,29.80,10.0,East,4.6,-,0.00,Rain,Light Rain,80,2013-05-05 23:53:00
8:53 PM,54.0,50.0,86,29.82,10.0,Calm,Calm,-,0.00,,Overcast,0,2013-05-06 00:53:00
9:53 PM,53.1,51.1,93,29.82,10.0,Calm,Calm,-,0.01,Rain,Light Rain,0,2013-05-06 01:53:00
10:53 PM,53.1,50.0,89,29.80,10.0,North,3.5,-,0.02,Rain,Light Rain,360,2013-05-06 02:53:00
11:53 PM,53.1,50.0,89,29.78,10.0,Variable,6.9,-,0.01,Rain,Light Rain,0,2013-05-06 03:53:00